User: anonymous   Login
Location: Columbia
(38.9520°N, 92.3340°W)
Time: 23:22:54
(UTC-05:00)
Language:

CZ-2C R/B - Orbit

View from above orbital plane
View from above orbital plane
View from above satellite
View from above satellite

Ground track
Ground track

The orbit data is extracted from the following two-line orbital elements,

1 28480U 04046B   15188.83069911  .00000156  00000-0  74355-4 0  9996
2 28480 098.1434 321.2956 0142750 161.2560 000.3985 14.25514258553028
Epoch (UTC): 07 July 2015 19:56:12
Eccentricity: 0.0142750
inclination: 98.1434°
perigee height: 704 km
apogee height: 909 km
right ascension of ascending node: 321.2956°
argument of perigee: 161.2560°
revolutions per day: 14.25514258
mean anomaly at epoch: 0.3985°
orbit number at epoch: 55302

The dashed part of the orbit path shows where the satellite is in the earth's shadow,  

DLR